sat.trackr.live / text

‹ back to catalog

STARLINK-37321

NORAD 69198 · 2026-114S

PAYLOAD ACTIVE UNKNOWN

§ Identity

Operator
Country
US
Launch date
2026-05-25
Launch site
AFETR
Launch vehicle
Mass (kg)
RCS (m²)

Purposes: comms

External: N2YO · Heavens-Above · Gunter

§ Orbital elements

Epoch: 2026-09-20T00:35:38.241024Z

Period
93.85 min
Inclination
53.1573°
Eccentricity
0.0001423
Mean motion
15.34400496 rev/d
Perigee alt
461.7 km
Apogee alt
463.7 km
Semi-major
6,840.8 km
B*
2.7257e-4
RAAN
115.9048°
Arg perigee
93.3550°
Mean anomaly
266.7616°
Rev number
1,937

§ Raw data

STARLINK-373211 69198U 26114S   26263.02474816  .00008844  00000+0  27257-3 0  99972 69198  53.1573 115.9048 0001423  93.3550 266.7616 15.34400496 19372

JSON: /api/v1/satellites/69198 · /tle

For live sub-satellite position, see the globe view (requires WebGL).

§ Visibility from observer

Set your observer location to see the next 7 days of passes ≥ 10°. The values pass through the URL so the page stays shareable.

No JS? Fill the form by hand. The geolocation button needs JavaScript.